Wind_Speed
16 16 13 12 13 13 12 22 20 24 24 24 25 27 26 26 29 30 30 30 32 33 33 35 36 36 38 36 35 35 35 38
23 18 19 18 18 14 11 21 27 23 24 25 27 27 27 31 31 36 36 37 37 38 37 40 41 42 38 37 36 37 39 39
18 20 19 17 20 14 21 25 24 23 27 31 29 30 31 34 34 39 37 40 39 40 45 46 44 40 38 38 39 41 42 40
15 18 17 14 13 14 19 22 24 26 30 33 34 32 33 36 41 40 42 44 43 45 45 44 40 41 41 41 44 46 48 48
6 10 10 11 15 18 22 26 29 32 33 36 33 37 43 45 46 48 50 47 46 44 42 41 42 44 45 47 49 51 51 55
10 10 13 16 19 21 25 30 34 36 39 37 38 44 43 43 48 49 45 39 42 42 42 43 43 45 50 55 54 54 55 56
12 14 18 21 23 25 30 33 38 37 38 45 50 50 44 41 43 46 45 45 45 47 49 51 52 54 59 57 55 57 57 56
15 17 17 24 23 25 28 29 31 35 41 46 47 46 49 48 47 46 46 47 50 53 55 56 58 59 56 52 45 42 40 41
18 14 15 16 24 26 28 30 36 41 40 41 45 45 43 45 46 46 48 51 54 55 57 59 59 55 46 41 39 40 39 36
8 10 18 29 31 36 37 34 33 37 42 44 45 45 49 49 50 52 52 52 54 57 58 54 47 38 37 37 36 36 34 35
12 17 21 26 28 34 36 38 44 48 45 43 47 50 47 48 48 48 52 56 58 54 50 35 29 35 37 36 36 38 42 40
19 21 28 29 29 29 38 44 47 43 46 49 53 48 44 44 50 53 56 55 53 49 42 38 34 35 36 40 42 42 42 38
19 20 25 29 35 35 45 51 43 43 45 47 41 44 44 48 52 54 54 51 47 42 39 36 33 33 29 33 34 36 37 35
23 27 28 33 37 47 47 43 42 38 38 38 40 43 46 49 52 53 51 48 43 40 36 30 34 36 39 40 37 36 36 34
27 36 44 46 42 37 42 41 36 35 36 40 43 45 48 50 51 46 41 41 40 38 34 33 32 32 32 29 29 33 35 31
39 42 43 44 43 40 37 35 35 35 37 42 45 47 49 46 43 43 41 40 36 32 30 27 27 28 30 36 36 37 36 36
38 41 45 41 34 33 28 33 29 37 41 40 43 43 42 41 41 37 34 31 28 29 28 27 27 25 32 37 35 37 37 36
42 45 37 31 30 31 28 32 34 39 34 33 32 37 39 38 37 29 27 27 28 27 26 26 29 30 35 40 39 39 40 39
41 35 34 33 32 33 33 37 33 34 34 37 34 36 39 32 28 25 29 27 29 28 29 31 36 36 41 44 42 41 41 38
Wind_Direction
216 214 219 229 235 236 243 254 256 270 275 283 286 292 294 304 308 306 307 306 310 310 311 310 310 306 306 301 299 296 295 294
219 222 230 239 246 253 242 252 262 274 278 282 283 285 294 296 297 297 297 301 304 303 302 309 304 298 296 296 298 296 296 296
219 226 237 244 251 232 232 247 267 275 274 282 280 284 289 289 289 293 296 294 294 294 305 301 297 293 294 295 297 298 296 296
222 236 246 248 254 257 260 273 281 279 275 276 276 279 282 284 287 287 285 289 305 301 299 296 293 295 298 297 297 294 293 294
205 239 251 262 280 285 280 284 281 272 269 273 278 283 283 284 287 288 288 305 302 301 300 297 295 291 291 293 294 291 288 288
234 255 279 291 295 292 283 274 268 269 273 274 281 280 278 281 300 305 308 300 300 303 299 295 295 292 292 296 295 291 288 285
262 283 292 291 287 277 271 273 276 279 284 288 292 302 309 310 308 311 310 307 305 303 302 299 299 298 299 297 295 291 289 286
291 303 289 290 287 282 280 280 283 293 297 305 308 311 314 312 308 304 305 305 304 303 301 300 299 299 298 297 297 296 292 290
301 297 295 295 299 297 294 290 293 301 308 308 304 304 303 301 299 300 301 303 303 301 300 299 299 300 301 296 293 290 286 284
318 328 313 305 298 297 298 296 302 306 305 303 301 299 299 299 300 300 301 301 298 298 300 303 307 301 299 299 299 296 295 292
308 309 305 302 302 297 291 291 297 303 303 299 307 302 301 298 299 302 301 300 305 309 309 306 299 297 299 297 295 294 295 294
301 300 298 303 304 304 301 307 311 312 307 300 300 297 298 303 303 302 307 309 311 312 310 304 300 300 299 294 292 292 291 293
299 304 297 300 299 297 306 306 302 301 297 297 302 307 306 304 307 309 312 314 313 310 309 304 301 293 291 291 294 294 293 291
288 290 300 312 307 304 304 298 307 308 308 308 303 303 307 308 309 312 314 317 318 316 314 301 295 291 291 294 299 298 297 294
301 298 303 309 310 305 300 306 310 311 310 309 308 308 309 312 316 321 319 320 319 316 313 311 308 306 305 300 298 298 296 293
307 308 313 315 314 308 308 307 309 312 313 309 308 310 313 317 319 318 320 320 318 316 316 312 308 306 300 296 302 299 296 292
317 317 316 318 313 310 311 317 310 310 310 306 308 311 316 317 317 318 318 318 315 312 311 309 306 306 294 306 306 302 300 296
317 315 318 315 313 314 313 303 309 309 310 304 305 301 316 312 313 314 315 315 317 314 311 308 304 310 304 310 308 304 300 297
319 317 315 314 312 311 312 304 307 305 301 302 298 302 306 309 307 312 310 317 313 313 310 310 316 314 309 309 308 303 301 298
Height
3165 3163 3163 3164 3163 3162 3163 3158 3157 3155 3154 3154 3152 3149 3146 3143 3142 3140 3136 3133 3129 3126 3123 3120 3117 3114 3110 3108 3105 3102 3099 3095
3159 3158 3157 3157 3158 3159 3161 3154 3153 3154 3152 3150 3148 3145 3142 3140 3138 3132 3130 3126 3124 3119 3115 3112 3109 3106 3102 3099 3096 3093 3089 3087
3154 3155 3155 3156 3155 3156 3154 3151 3151 3150 3147 3144 3143 3140 3137 3134 3131 3126 3124 3119 3115 3112 3108 3104 3100 3096 3093 3090 3086 3081 3078 3078
3152 3153 3153 3153 3152 3151 3150 3148 3147 3145 3143 3139 3136 3133 3129 3127 3122 3119 3115 3112 3109 3104 3099 3094 3090 3085 3082 3078 3074 3071 3065 3063
3152 3151 3150 3150 3150 3149 3147 3145 3142 3140 3138 3132 3131 3128 3123 3119 3114 3109 3106 3102 3099 3094 3089 3084 3080 3076 3072 3068 3065 3059 3056 3050
3150 3150 3149 3147 3147 3146 3144 3141 3137 3135 3130 3128 3124 3118 3113 3108 3105 3101 3097 3090 3087 3082 3077 3073 3070 3066 3061 3056 3050 3045 3041 3037
3149 3148 3146 3145 3144 3142 3140 3137 3132 3131 3127 3122 3118 3113 3107 3101 3097 3090 3085 3080 3075 3071 3066 3060 3056 3051 3044 3039 3033 3028 3023 3020
3147 3145 3143 3140 3138 3136 3134 3132 3129 3123 3119 3116 3109 3102 3096 3092 3087 3081 3075 3070 3065 3060 3054 3049 3043 3037 3031 3025 3020 3015 3009 3006
3143 3141 3139 3136 3133 3131 3130 3128 3124 3117 3111 3107 3102 3096 3090 3084 3077 3072 3066 3060 3054 3048 3042 3036 3029 3023 3017 3012 3009 3005 3000 2997
3140 3139 3135 3132 3129 3126 3123 3120 3116 3111 3105 3098 3092 3086 3079 3073 3067 3062 3057 3052 3046 3038 3031 3024 3017 3010 3004 3001 2998 2995 2991 2988
3141 3139 3134 3129 3125 3120 3116 3112 3108 3102 3095 3088 3082 3076 3071 3065 3059 3053 3046 3039 3032 3024 3016 3010 3005 3000 2997 2993 2990 2986 2982 2979
3138 3133 3128 3124 3119 3113 3107 3101 3096 3091 3084 3078 3072 3065 3060 3054 3047 3039 3033 3026 3018 3012 3006 3001 2996 2991 2987 2983 2980 2977 2973 2970
3132 3128 3122 3117 3112 3106 3100 3093 3087 3081 3075 3067 3061 3056 3050 3043 3035 3028 3022 3015 3008 3002 2997 2991 2986 2983 2978 2974 2970 2966 2963 2960
3124 3119 3116 3110 3104 3097 3089 3082 3076 3072 3066 3060 3053 3047 3041 3034 3026 3019 3012 3004 2998 2992 2987 2982 2978 2974 2970 2965 2960 2957 2953 2950
3117 3111 3106 3101 3093 3085 3079 3073 3068 3062 3057 3051 3044 3038 3031 3023 3014 3006 3001 2995 2990 2984 2979 2974 2969 2965 2960 2956 2953 2949 2945 2941
3109 3102 3096 3090 3083 3078 3071 3065 3059 3053 3048 3042 3036 3028 3020 3013 3006 3000 2994 2988 2982 2977 2972 2968 2963 2958 2952 2946 2943 2938 2934 2930
3100 3094 3088 3082 3075 3069 3064 3057 3053 3046 3040 3032 3024 3018 3012 3005 2998 2992 2986 2981 2976 2971 2966 2961 2956 2951 2942 2938 2934 2928 2924 2919
3092 3086 3078 3073 3068 3062 3058 3053 3046 3037 3031 3025 3018 3010 3004 2998 2991 2986 2981 2975 2970 2964 2959 2954 2948 2942 2933 2929 2924 2918 2912 2908
3083 3078 3073 3068 3063 3058 3053 3047 3040 3033 3026 3018 3011 3004 2998 2992 2986 2981 2975 2970 2964 2958 2952 2945 2939 2934 2924 2918 2912 2906 2900 2896